^^
Daily Summary for August 09, 2021 Units:  Metric    English   Both
Daily Weekly Monthly Yearly Custom
  High: Low: Average:
Temperature: 36.1 °C 17.2 °C 26.1 °C
Dew Point: 10.6 °C 6.1 °C 8.4 °C
Humidity: 56% 18% 36%
Wind Speed: 25.7km/h 0km/h 6.4km/h
Wind Gust: 25.7km/h - -
Wind- - SSW
Pressure: 1012.4 hPa 1012.4 hPa -
Precipitation: 0 mm    
Historical Graphs
 
 
Tabular Data for August 09, 2021
Time Temperature Dew Point Pressure Wind Wind Speed Wind Gust Humidity Rainfall Rate (Hourly) solar
00:04 21.1 °C 10.6 °C 1012.4 hPa Calm     51% 0 mm 0.00 W/m2
00:09 21.1 °C 10.6 °C 1012.4 hPa Calm     51% 0 mm 0.00 W/m2
00:14 20.6 °C 10.6 °C 1012.4 hPa Calm     51% 0 mm 0.00 W/m2
00:19 20.6 °C 10 °C 1012.4 hPa Calm     50% 0 mm 0.00 W/m2
00:24 20.6 °C 9.4 °C 1012.4 hPa Calm     49% 0 mm 0.00 W/m2
00:29 20.6 °C 9.4 °C 1012.4 hPa Calm     48% 0 mm 0.00 W/m2
00:34 20.6 °C 8.9 °C 1012.4 hPa Calm     47% 0 mm 0.00 W/m2
00:39 20.6 °C 8.3 °C 1012.4 hPa Calm     46% 0 mm 0.00 W/m2
00:44 20.6 °C 8.3 °C 1012.4 hPa Calm     46% 0 mm 0.00 W/m2
00:49 20.6 °C 7.8 °C 1012.4 hPa Calm     45% 0 mm 0.00 W/m2
00:54 20.6 °C 7.8 °C 1012.4 hPa Calm     45% 0 mm 0.00 W/m2
00:59 20 °C 7.8 °C 1012.4 hPa Calm     45% 0 mm 0.00 W/m2
01:04 20 °C 7.8 °C 1012.4 hPa Calm     45% 0 mm 0.00 W/m2
01:09 20 °C 7.8 °C 1012.4 hPa Calm     45% 0 mm 0.00 W/m2
01:14 20 °C 7.8 °C 1012.4 hPa Calm     45% 0 mm 0.00 W/m2
01:19 20 °C 7.8 °C 1012.4 hPa Calm     45% 0 mm 0.00 W/m2
01:24 20 °C 7.8 °C 1012.4 hPa Calm     46% 0 mm 0.00 W/m2
01:29 20 °C 7.8 °C 1012.4 hPa Calm     46% 0 mm 0.00 W/m2
01:34 20 °C 7.8 °C 1012.4 hPa Calm     45% 0 mm 0.00 W/m2
01:39 20 °C 7.8 °C 1012.4 hPa Calm     45% 0 mm 0.00 W/m2
01:44 19.4 °C 7.2 °C 1012.4 hPa Calm     45% 0 mm 0.00 W/m2
01:49 19.4 °C 7.2 °C 1012.4 hPa Calm     45% 0 mm 0.00 W/m2
01:54 19.4 °C 7.2 °C 1012.4 hPa Calm     45% 0 mm 0.00 W/m2
01:59 19.4 °C 7.2 °C 1012.4 hPa Calm     45% 0 mm 0.00 W/m2
02:04 19.4 °C 7.2 °C 1012.4 hPa Calm     46% 0 mm 0.00 W/m2
02:09 19.4 °C 7.8 °C 1012.4 hPa Calm     47% 0 mm 0.00 W/m2
02:14 19.4 °C 7.2 °C 1012.4 hPa Calm     46% 0 mm 0.00 W/m2
02:19 19.4 °C 7.2 °C 1012.4 hPa Calm     46% 0 mm 0.00 W/m2
02:24 19.4 °C 7.8 °C 1012.4 hPa Calm     47% 0 mm 0.00 W/m2
02:29 18.9 °C 7.2 °C 1012.4 hPa Calm     46% 0 mm 0.00 W/m2
02:34 18.9 °C 7.2 °C 1012.4 hPa Calm     46% 0 mm 0.00 W/m2
02:39 18.9 °C 7.2 °C 1012.4 hPa Calm     46% 0 mm 0.00 W/m2
02:44 18.9 °C 7.2 °C 1012.4 hPa Calm     46% 0 mm 0.00 W/m2
02:49 18.9 °C 7.2 °C 1012.4 hPa Calm     46% 0 mm 0.00 W/m2
02:54 18.9 °C 6.7 °C 1012.4 hPa Calm     46% 0 mm 0.00 W/m2
02:59 18.9 °C 7.2 °C 1012.4 hPa Calm     47% 0 mm 0.00 W/m2
03:04 18.9 °C 7.2 °C 1012.4 hPa Calm     47% 0 mm 0.00 W/m2
03:09 18.9 °C 7.2 °C 1012.4 hPa Calm     47% 0 mm 0.00 W/m2
03:14 18.3 °C 7.2 °C 1012.4 hPa Calm     47% 0 mm 0.00 W/m2
03:19 18.3 °C 7.2 °C 1012.4 hPa Calm     47% 0 mm 0.00 W/m2
03:24 18.9 °C 7.2 °C 1012.4 hPa Calm     47% 0 mm 0.00 W/m2
03:29 18.9 °C 7.2 °C 1012.4 hPa Calm     48% 0 mm 0.00 W/m2
03:34 18.3 °C 7.2 °C 1012.4 hPa Calm     48% 0 mm 0.00 W/m2
03:39 18.3 °C 7.2 °C 1012.4 hPa Calm     48% 0 mm 0.00 W/m2
03:44 18.3 °C 7.2 °C 1012.4 hPa Calm     48% 0 mm 0.00 W/m2
03:49 18.3 °C 7.2 °C 1012.4 hPa Calm     47% 0 mm 0.00 W/m2
03:53 18.3 °C 7.2 °C 1012.4 hPa Calm     47% 0 mm 0.00 W/m2
03:59 18.3 °C 7.2 °C 1012.4 hPa Calm     48% 0 mm 0.00 W/m2
04:04 18.3 °C 7.8 °C 1012.4 hPa Calm     49% 0 mm 0.00 W/m2
04:09 18.3 °C 7.2 °C 1012.4 hPa Calm     48% 0 mm 0.00 W/m2
04:14 18.3 °C 7.2 °C 1012.4 hPa Calm     48% 0 mm 0.00 W/m2
04:19 18.3 °C 7.2 °C 1012.4 hPa Calm     48% 0 mm 0.00 W/m2
04:24 18.3 °C 7.2 °C 1012.4 hPa Calm     48% 0 mm 0.00 W/m2
04:29 18.3 °C 7.2 °C 1012.4 hPa Calm     48% 0 mm 0.00 W/m2
04:34 18.3 °C 7.2 °C 1012.4 hPa Calm     49% 0 mm 0.00 W/m2
04:39 18.3 °C 7.2 °C 1012.4 hPa Calm     49% 0 mm 0.00 W/m2
04:44 18.3 °C 7.2 °C 1012.4 hPa Calm     49% 0 mm 0.00 W/m2
04:49 18.3 °C 7.2 °C 1012.4 hPa Calm     49% 0 mm 0.00 W/m2
04:54 18.3 °C 7.2 °C 1012.4 hPa Calm     49% 0 mm 0.00 W/m2
04:59 18.3 °C 7.8 °C 1012.4 hPa Calm     50% 0 mm 0.00 W/m2
05:04 18.3 °C 7.8 °C 1012.4 hPa Calm     50% 0 mm 0.00 W/m2
05:09 18.3 °C 7.2 °C 1012.4 hPa Calm     50% 0 mm 0.00 W/m2
05:14 17.8 °C 7.8 °C 1012.4 hPa Calm     51% 0 mm 0.00 W/m2
05:19 17.8 °C 7.2 °C 1012.4 hPa Calm     50% 0 mm 0.00 W/m2
05:24 17.8 °C 7.2 °C 1012.4 hPa Calm     50% 0 mm 0.00 W/m2
05:29 17.8 °C 7.2 °C 1012.4 hPa Calm     50% 0 mm 0.00 W/m2
05:34 17.8 °C 7.2 °C 1012.4 hPa Calm     50% 0 mm 0.00 W/m2
05:39 17.8 °C 7.2 °C 1012.4 hPa Calm     51% 0 mm 0.00 W/m2
05:44 17.8 °C 7.2 °C 1012.4 hPa Calm     51% 0 mm 0.00 W/m2
05:49 17.8 °C 7.2 °C 1012.4 hPa Calm     50% 0 mm 0.00 W/m2
05:54 17.8 °C 7.2 °C 1012.4 hPa Calm     50% 0 mm 0.00 W/m2
05:59 17.8 °C 7.2 °C 1012.4 hPa Calm     50% 0 mm 0.00 W/m2
06:04 17.2 °C 6.7 °C 1012.4 hPa Calm     49% 0 mm 0.00 W/m2
06:09 17.2 °C 6.7 °C 1012.4 hPa Calm     49% 0 mm 0.00 W/m2
06:14 17.2 °C 6.7 °C 1012.4 hPa Calm     49% 0 mm 0.00 W/m2
06:19 17.2 °C 7.2 °C 1012.4 hPa Calm     51% 0 mm 0.00 W/m2
06:24 17.2 °C 7.2 °C 1012.4 hPa Calm     51% 0 mm 5.00 W/m2
06:29 17.2 °C 7.2 °C 1012.4 hPa Calm     52% 0 mm 7.00 W/m2
06:34 17.2 °C 7.2 °C 1012.4 hPa Calm     51% 0 mm 9.00 W/m2
06:39 17.8 °C 7.2 °C 1012.4 hPa Calm     51% 0 mm 11.00 W/m2
06:44 17.8 °C 7.2 °C 1012.4 hPa Calm     51% 0 mm 12.00 W/m2
06:49 17.8 °C 7.2 °C 1012.4 hPa Calm     50% 0 mm 12.00 W/m2
06:54 17.8 °C 6.7 °C 1012.4 hPa Calm     49% 0 mm 14.00 W/m2
06:59 17.8 °C 6.7 °C 1012.4 hPa Calm     49% 0 mm 16.00 W/m2
07:04 17.8 °C 6.7 °C 1012.4 hPa Calm     49% 0 mm 19.00 W/m2
07:09 17.2 °C 6.7 °C 1012.4 hPa Calm     50% 0 mm 21.00 W/m2
07:14 17.2 °C 6.7 °C 1012.4 hPa Calm     50% 0 mm 23.00 W/m2
07:19 17.2 °C 7.2 °C 1012.4 hPa Calm     51% 0 mm 25.00 W/m2
07:24 17.2 °C 7.2 °C 1012.4 hPa Calm     51% 0 mm 26.00 W/m2
07:29 17.8 °C 7.2 °C 1012.4 hPa Calm     51% 0 mm 26.00 W/m2
07:34 17.8 °C 7.2 °C 1012.4 hPa Calm     51% 0 mm 28.00 W/m2
07:39 17.8 °C 7.8 °C 1012.4 hPa Calm     52% 0 mm 32.00 W/m2
07:44 17.8 °C 7.8 °C 1012.4 hPa Calm     52% 0 mm 33.00 W/m2
07:49 17.8 °C 8.3 °C 1012.4 hPa Calm     53% 0 mm 35.00 W/m2
07:54 17.8 °C 8.3 °C 1012.4 hPa Calm     53% 0 mm 37.00 W/m2
07:59 18.3 °C 8.3 °C 1012.4 hPa Calm     52% 0 mm 39.00 W/m2
08:04 18.3 °C 8.9 °C 1012.4 hPa Calm     55% 0 mm 42.00 W/m2
08:09 18.3 °C 8.3 °C 1012.4 hPa Calm     53% 0 mm 46.00 W/m2
08:14 18.9 °C 8.9 °C 1012.4 hPa Calm     53% 0 mm 47.00 W/m2
08:19 18.9 °C 8.9 °C 1012.4 hPa Calm     53% 0 mm 163.00 W/m2
08:24 19.4 °C 9.4 °C 1012.4 hPa Calm     53% 0 mm 195.00 W/m2
08:28 19.4 °C 9.4 °C 1012.4 hPa Calm     53% 0 mm 271.00 W/m2
08:34 20 °C 10.6 °C 1012.4 hPa Calm     56% 0 mm 267.00 W/m2
08:39 20 °C 10 °C 1012.4 hPa Calm     53% 0 mm 410.00 W/m2
08:44 20.6 °C 10 °C 1012.4 hPa South 3.2 km/h   51% 0 mm 427.00 W/m2
08:49 21.1 °C 9.4 °C 1012.4 hPa Calm   3.2 km/h 48% 0 mm 445.00 W/m2
08:54 21.7 °C 9.4 °C 1012.4 hPa South 3.2 km/h   47% 0 mm 461.00 W/m2
08:59 22.2 °C 9.4 °C 1012.4 hPa South 3.2 km/h 3.2 km/h 46% 0 mm 478.00 W/m2
09:04 22.8 °C 9.4 °C 1012.4 hPa Calm   3.2 km/h 43% 0 mm 490.00 W/m2
09:09 23.3 °C 9.4 °C 1012.4 hPa Calm     43% 0 mm 508.00 W/m2
09:14 23.3 °C 8.9 °C 1012.4 hPa South 3.2 km/h   40% 0 mm 527.00 W/m2
09:19 24.4 °C 8.9 °C 1012.4 hPa South 6.4 km/h 3.2 km/h 38% 0 mm 543.00 W/m2
09:24 25 °C 8.9 °C 1012.4 hPa SSW 6.4 km/h 4.8 km/h 37% 0 mm 559.00 W/m2
09:29 25.6 °C 8.9 °C 1012.4 hPa SSW 3.2 km/h 3.2 km/h 36% 0 mm 573.00 W/m2
09:34 26.1 °C 8.9 °C 1012.4 hPa SSW 3.2 km/h 3.2 km/h 35% 0 mm 585.00 W/m2
09:39 26.7 °C 9.4 °C 1012.4 hPa SSE 6.4 km/h 3.2 km/h 35% 0 mm 605.00 W/m2
09:44 26.7 °C 9.4 °C 1012.4 hPa West 14.5 km/h 6.4 km/h 33% 0 mm 617.00 W/m2
09:49 27.2 °C 10 °C 1012.4 hPa SSW 6.4 km/h 14.5 km/h 34% 0 mm 636.00 W/m2
09:54 27.8 °C 10 °C 1012.4 hPa WSW 6.4 km/h 4.8 km/h 34% 0 mm 650.00 W/m2
09:59 27.8 °C 9.4 °C 1012.4 hPa SSW 20.9 km/h 11.3 km/h 32% 0 mm 657.00 W/m2
10:04 28.3 °C 9.4 °C 1012.4 hPa SW 9.7 km/h 20.9 km/h 31% 0 mm 673.00 W/m2
10:09 28.3 °C 10 °C 1012.4 hPa SW 8 km/h 3.2 km/h 31% 0 mm 684.00 W/m2
10:14 28.9 °C 9.4 °C 1012.4 hPa SW 14.5 km/h 9.7 km/h 30% 0 mm 687.00 W/m2
10:19 29.4 °C 9.4 °C 1012.4 hPa SW 11.3 km/h 14.5 km/h 29% 0 mm 617.00 W/m2
10:24 29.4 °C 10 °C 1012.4 hPa West 20.9 km/h 12.9 km/h 30% 0 mm 719.00 W/m2
10:29 29.4 °C 9.4 °C 1012.4 hPa SW 6.4 km/h 20.9 km/h 29% 0 mm 731.00 W/m2
10:34 29.4 °C 8.9 °C 1012.4 hPa SW 14.5 km/h 9.7 km/h 27% 0 mm 744.00 W/m2
10:39 30 °C 8.9 °C 1012.4 hPa SW 9.7 km/h 14.5 km/h 27% 0 mm 758.00 W/m2
10:44 30 °C 8.9 °C 1012.4 hPa SSE 3.2 km/h 9.7 km/h 27% 0 mm 772.00 W/m2
10:49 30 °C 8.9 °C 1012.4 hPa South 11.3 km/h 4.8 km/h 27% 0 mm 779.00 W/m2
10:54 30.6 °C 10 °C 1012.4 hPa East 3.2 km/h 11.3 km/h 28% 0 mm 789.00 W/m2
10:59 30.6 °C 9.4 °C 1012.4 hPa SSW 3.2 km/h 3.2 km/h 27% 0 mm 802.00 W/m2
11:04 30.6 °C 9.4 °C 1012.4 hPa WNW 9.7 km/h 9.7 km/h 27% 0 mm 810.00 W/m2
11:09 31.1 °C 9.4 °C 1012.4 hPa SSW 14.5 km/h 9.7 km/h 26% 0 mm 824.00 W/m2
11:14 31.1 °C 9.4 °C 1012.4 hPa SW 9.7 km/h 14.5 km/h 26% 0 mm 837.00 W/m2
11:19 31.7 °C 8.9 °C 1012.4 hPa SW 6.4 km/h 3.2 km/h 25% 0 mm 846.00 W/m2
11:24 31.7 °C 8.9 °C 1012.4 hPa SW 11.3 km/h 11.3 km/h 25% 0 mm 854.00 W/m2
11:29 31.7 °C 8.9 °C 1012.4 hPa WSW 9.7 km/h 9.7 km/h 24% 0 mm 861.00 W/m2
11:34 31.7 °C 8.9 °C 1012.4 hPa WSW 9.7 km/h 9.7 km/h 24% 0 mm 865.00 W/m2
11:39 31.7 °C 8.9 °C 1012.4 hPa SW 17.7 km/h 9.7 km/h 24% 0 mm 874.00 W/m2
11:44 32.2 °C 8.3 °C 1012.4 hPa SSW 9.7 km/h 16.1 km/h 23% 0 mm 877.00 W/m2
11:49 32.2 °C 8.3 °C 1012.4 hPa SW 14.5 km/h 9.7 km/h 23% 0 mm 891.00 W/m2
11:54 32.2 °C 8.9 °C 1012.4 hPa East 11.3 km/h 14.5 km/h 24% 0 mm 896.00 W/m2
11:59 32.2 °C 8.9 °C 1012.4 hPa East 6.4 km/h 11.3 km/h 24% 0 mm 900.00 W/m2
12:04 32.8 °C 8.9 °C 1012.4 hPa SW 25.7 km/h 12.9 km/h 23% 0 mm 909.00 W/m2
12:09 32.8 °C 8.9 °C 1012.4 hPa SSE 11.3 km/h 25.7 km/h 23% 0 mm 909.00 W/m2
12:14 32.8 °C 8.9 °C 1012.4 hPa South 11.3 km/h 11.3 km/h 23% 0 mm 914.00 W/m2
12:19 32.8 °C 8.9 °C 1012.4 hPa NNW 9.7 km/h 9.7 km/h 23% 0 mm 921.00 W/m2
12:24 33.3 °C 10 °C 1012.4 hPa WNW 9.7 km/h 9.7 km/h 24% 0 mm 923.00 W/m2
12:29 33.3 °C 9.4 °C 1012.4 hPa South 17.7 km/h 11.3 km/h 23% 0 mm 921.00 W/m2
12:34 33.3 °C 9.4 °C 1012.4 hPa SW 20.9 km/h 16.1 km/h 23% 0 mm 923.00 W/m2
12:39 33.3 °C 9.4 °C 1012.4 hPa SW 19.3 km/h 20.9 km/h 23% 0 mm 928.00 W/m2
12:44 33.3 °C 9.4 °C 1012.4 hPa WSW 20.9 km/h 20.9 km/h 23% 0 mm 926.00 W/m2
12:49 33.3 °C 10 °C 1012.4 hPa East 6.4 km/h 9.7 km/h 24% 0 mm 925.00 W/m2
12:54 33.9 °C 10.6 °C 1012.4 hPa SW 11.3 km/h 4.8 km/h 24% 0 mm 925.00 W/m2
12:59 33.9 °C 10 °C 1012.4 hPa SSW 17.7 km/h 11.3 km/h 23% 0 mm 923.00 W/m2
13:04 33.9 °C 10 °C 1012.4 hPa SSW 17.7 km/h 16.1 km/h 23% 0 mm 921.00 W/m2
13:09 33.9 °C 9.4 °C 1012.4 hPa West 14.5 km/h 16.1 km/h 22% 0 mm 921.00 W/m2
13:14 33.9 °C 9.4 °C 1012.4 hPa South 25.7 km/h 14.5 km/h 22% 0 mm 918.00 W/m2
13:19 33.9 °C 10 °C 1012.4 hPa South 14.5 km/h 25.7 km/h 23% 0 mm 912.00 W/m2
13:24 33.9 °C 10 °C 1012.4 hPa SW 14.5 km/h 14.5 km/h 23% 0 mm 912.00 W/m2
13:29 33.9 °C 9.4 °C 1012.4 hPa SSW 20.9 km/h 14.5 km/h 22% 0 mm 909.00 W/m2
13:34 33.9 °C 9.4 °C 1012.4 hPa WSW 14.5 km/h 20.9 km/h 22% 0 mm 907.00 W/m2
13:39 34.4 °C 9.4 °C 1012.4 hPa South 9.7 km/h 9.7 km/h 22% 0 mm 900.00 W/m2
13:44 34.4 °C 10 °C 1012.4 hPa SW 14.5 km/h 12.9 km/h 23% 0 mm 902.00 W/m2
13:48 34.4 °C 8.9 °C 1012.4 hPa SW 19.3 km/h 14.5 km/h 21% 0 mm 900.00 W/m2
13:54 34.4 °C 9.4 °C 1012.4 hPa SW 20.9 km/h 20.9 km/h 22% 0 mm 891.00 W/m2
13:59 34.4 °C 9.4 °C 1012.4 hPa SSW 14.5 km/h 16.1 km/h 22% 0 mm 886.00 W/m2
14:04 34.4 °C 9.4 °C 1012.4 hPa SSW 20.9 km/h 14.5 km/h 22% 0 mm 882.00 W/m2
14:09 34.4 °C 9.4 °C 1012.4 hPa ESE 25.7 km/h 20.9 km/h 22% 0 mm 872.00 W/m2
14:14 34.4 °C 8.9 °C 1012.4 hPa SSW 9.7 km/h 25.7 km/h 21% 0 mm 865.00 W/m2
14:19 34.4 °C 10.6 °C 1012.4 hPa SSW 20.9 km/h 14.5 km/h 23% 0 mm 861.00 W/m2
14:24 35 °C 10.6 °C 1012.4 hPa South 20.9 km/h 20.9 km/h 23% 0 mm 856.00 W/m2
14:29 35 °C 10 °C 1012.4 hPa South 17.7 km/h 20.9 km/h 22% 0 mm 844.00 W/m2
14:34 35 °C 9.4 °C 1012.4 hPa East 6.4 km/h 16.1 km/h 21% 0 mm 837.00 W/m2
14:39 35.6 °C 9.4 °C 1012.4 hPa SSW 14.5 km/h 8 km/h 21% 0 mm 838.00 W/m2
14:44 35.6 °C 8.9 °C 1012.4 hPa West 20.9 km/h 16.1 km/h 20% 0 mm 817.00 W/m2
14:49 35.6 °C 10 °C 1012.4 hPa SSW 17.7 km/h 20.9 km/h 21% 0 mm 814.00 W/m2
14:54 35.6 °C 9.4 °C 1012.4 hPa SW 14.5 km/h 16.1 km/h 21% 0 mm 802.00 W/m2
14:59 35.6 °C 10.6 °C 1012.4 hPa NE 11.3 km/h 14.5 km/h 22% 0 mm 795.00 W/m2
15:04 36.1 °C 10 °C 1012.4 hPa East 11.3 km/h 11.3 km/h 21% 0 mm 795.00 W/m2
15:09 36.1 °C 9.4 °C 1012.4 hPa South 19.3 km/h 11.3 km/h 20% 0 mm 775.00 W/m2
15:14 36.1 °C 9.4 °C 1012.4 hPa SSE 20.9 km/h 20.9 km/h 20% 0 mm 766.00 W/m2
15:19 36.1 °C 9.4 °C 1012.4 hPa SW 14.5 km/h 11.3 km/h 20% 0 mm 754.00 W/m2
15:24 36.1 °C 8.9 °C 1012.4 hPa WSW 17.7 km/h 16.1 km/h 19% 0 mm 740.00 W/m2
15:29 36.1 °C 9.4 °C 1012.4 hPa ENE 9.7 km/h 16.1 km/h 20% 0 mm 731.00 W/m2
15:34 36.1 °C 9.4 °C 1012.4 hPa SW 20.9 km/h 11.3 km/h 20% 0 mm 721.00 W/m2
15:39 36.1 °C 8.9 °C 1012.4 hPa WSW 14.5 km/h 20.9 km/h 19% 0 mm 703.00 W/m2
15:44 36.1 °C 8.9 °C 1012.4 hPa West 14.5 km/h 14.5 km/h 19% 0 mm 689.00 W/m2
15:49 36.1 °C 8.9 °C 1012.4 hPa WSW 14.5 km/h 11.3 km/h 19% 0 mm 687.00 W/m2
15:54 36.1 °C 8.9 °C 1012.4 hPa SSW 14.5 km/h 14.5 km/h 19% 0 mm 671.00 W/m2
15:59 35.6 °C 8.3 °C 1012.4 hPa SSW 11.3 km/h 14.5 km/h 19% 0 mm 664.00 W/m2
16:04 35.6 °C 8.3 °C 1012.4 hPa SW 17.7 km/h 12.9 km/h 19% 0 mm 638.00 W/m2
16:09 36.1 °C 9.4 °C 1012.4 hPa South 19.3 km/h 16.1 km/h 20% 0 mm 635.00 W/m2
16:14 36.1 °C 8.9 °C 1012.4 hPa SW 20.9 km/h 20.9 km/h 19% 0 mm 621.00 W/m2
16:19 36.1 °C 8.9 °C 1012.4 hPa West 11.3 km/h 14.5 km/h 19% 0 mm 605.00 W/m2
16:24 36.1 °C 9.4 °C 1012.4 hPa WNW 9.7 km/h 11.3 km/h 20% 0 mm 594.00 W/m2
16:29 36.1 °C 9.4 °C 1012.4 hPa South 9.7 km/h 9.7 km/h 20% 0 mm 582.00 W/m2
16:34 36.1 °C 8.9 °C 1012.4 hPa SW 11.3 km/h 9.7 km/h 19% 0 mm 561.00 W/m2
16:39 36.1 °C 7.8 °C 1012.4 hPa SSW 17.7 km/h 14.5 km/h 18% 0 mm 543.00 W/m2
16:44 36.1 °C 8.9 °C 1012.4 hPa WSW 6.4 km/h 16.1 km/h 19% 0 mm 538.00 W/m2
16:49 36.1 °C 8.9 °C 1012.4 hPa WSW 11.3 km/h 11.3 km/h 19% 0 mm 517.00 W/m2
16:54 36.1 °C 8.3 °C 1012.4 hPa SSW 11.3 km/h 11.3 km/h 18% 0 mm 501.00 W/m2
16:59 36.1 °C 7.8 °C 1012.4 hPa SSW 11.3 km/h 11.3 km/h 18% 0 mm 485.00 W/m2
17:04 36.1 °C 7.8 °C 1012.4 hPa SSW 11.3 km/h 9.7 km/h 18% 0 mm 469.00 W/m2
17:09 36.1 °C 7.8 °C 1012.4 hPa South 11.3 km/h 11.3 km/h 18% 0 mm 455.00 W/m2
17:14 36.1 °C 8.9 °C 1012.4 hPa SW 9.7 km/h 11.3 km/h 19% 0 mm 439.00 W/m2
17:19 36.1 °C 8.9 °C 1012.4 hPa East 9.7 km/h 3.2 km/h 19% 0 mm 427.00 W/m2
17:24 36.1 °C 8.9 °C 1012.4 hPa East 9.7 km/h 9.7 km/h 19% 0 mm 411.00 W/m2
17:28 36.1 °C 8.9 °C 1012.4 hPa SSW 11.3 km/h 9.7 km/h 19% 0 mm 397.00 W/m2
17:34 36.1 °C 8.3 °C 1012.4 hPa WSW 11.3 km/h 11.3 km/h 19% 0 mm 378.00 W/m2
17:39 35.6 °C 7.8 °C 1012.4 hPa WSW 14.5 km/h 14.5 km/h 18% 0 mm 367.00 W/m2
17:44 35.6 °C 8.9 °C 1012.4 hPa SSW 6.4 km/h 9.7 km/h 20% 0 mm 167.00 W/m2
17:49 35.6 °C 8.3 °C 1012.4 hPa South 6.4 km/h 4.8 km/h 19% 0 mm 113.00 W/m2
17:54 35 °C 7.2 °C 1012.4 hPa SW 14.5 km/h 9.7 km/h 18% 0 mm 90.00 W/m2
17:59 35 °C 7.2 °C 1012.4 hPa WSW 11.3 km/h 14.5 km/h 18% 0 mm 65.00 W/m2
18:04 34.4 °C 7.2 °C 1012.4 hPa SSW 11.3 km/h 11.3 km/h 19% 0 mm 56.00 W/m2
18:09 33.9 °C 7.2 °C 1012.4 hPa SW 9.7 km/h 9.7 km/h 19% 0 mm 51.00 W/m2
18:14 33.9 °C 7.2 °C 1012.4 hPa SW 9.7 km/h 4.8 km/h 19% 0 mm 46.00 W/m2
18:19 33.9 °C 6.7 °C 1012.4 hPa SSW 14.5 km/h 9.7 km/h 19% 0 mm 42.00 W/m2
18:23 33.3 °C 6.1 °C 1012.4 hPa SW 6.4 km/h 14.5 km/h 18% 0 mm 39.00 W/m2
El Dorado Weather
Compliments of Weather Underground - 2 mb